Weather History for North Island, CA

Change the Weather History Date:

Saturday, February 9, 2013

  Actual Average Record
Temperature  
Mean Temperature 53 °F -  
Max Temperature 60 °F 61 °F 82 °F (2008)
Min Temperature 46 °F 48 °F 42 °F (2001)
Degree Days  
Heating Degree Days 12    
Growing Degree Days 3 (Base 50)    
Moisture  
Dew Point 41 °F    
Average Humidity 66    
Maximum Humidity 83    
Minimum Humidity 46    
Precipitation  
Precipitation 0.05 in - - ()
Sea Level Pressure  
Sea Level Pressure 30.03 in    
Wind  
Wind Speed 4 mph (SSE)    
Max Wind Speed 10 mph    
Max Gust Speed -    
Visibility 10 miles    
Events Rain    
Averages and records for this station are not official NWS values.
T = Trace of Precipitation, MM = Missing Value Source: NWS Daily Summary

Daily Weather History Graph

Daily Weather History Graph

Search for Another Location

Airport:

Trip Planner

Search our weather history database for the weather conditions in past years. The results will help you decide how hot, cold, wet, or windy it might be!

Date:

Astronomy

Feb. 09, 2013 Rise Set
Actual Time 6:37 AM PST 5:29 PM PST
Civil Twilight 6:11 AM PST 5:54 PM PST
Nautical Twilight 5:42 AM PST 6:23 PM PST
Astronomical Twilight 5:13 AM PST 6:52 PM PST
Moon 5:52 AM PST (2/9) 5:15 PM PST (2/9)
Length of Visible Light 11h 43m
Length of Day
10h 52m
Waning Crescent, 0% of the Moon is Illuminated
Feb 9
Waning Crescent
Feb 9
New
Feb 17
First Quarter
Feb 25
Full
Mar 4
Last Quarter

Hourly Weather History & Observations

Time (PST) Temp. Windchill Dew Point Humidity Pressure Visibility Wind Dir Wind Speed Gust Speed Precip Events Conditions
12:06 AM 50.0 °F - 39.2 °F 66% 29.95 in 10.0 mi Calm Calm - 0.00 in   Mostly Cloudy
12:52 AM 48.0 °F - 39.9 °F 74% 29.95 in 10.0 mi Calm Calm - 0.00 in   Mostly Cloudy
1:16 AM 48.2 °F - 42.8 °F 82% 29.95 in 10.0 mi Calm Calm - 0.00 in Rain Light Rain
1:52 AM 48.0 °F - 41.0 °F 77% 29.95 in 10.0 mi ENE 4.6 mph - 0.04 in Rain Light Rain
2:04 AM 48.2 °F - 41.0 °F 76% 29.95 in 10.0 mi East 5.8 mph - 0.00 in   Mostly Cloudy
2:52 AM 46.9 °F - 42.1 °F 83% 29.96 in 9.0 mi East 6.9 mph - 0.00 in Rain Light Rain
3:36 AM 46.4 °F 42.9 °F 41.0 °F 81% 29.96 in 9.0 mi East 6.9 mph - 0.01 in   Mostly Cloudy
3:52 AM 46.9 °F - 41.0 °F 80% 29.96 in 9.0 mi East 5.8 mph - 0.01 in   Mostly Cloudy
4:52 AM 46.9 °F - 41.0 °F 80% 29.97 in 10.0 mi East 4.6 mph - N/A   Mostly Cloudy
5:52 AM 46.0 °F 43.1 °F 39.9 °F 79% 29.98 in 10.0 mi ESE 5.8 mph - N/A   Scattered Clouds
6:52 AM 46.9 °F - 41.0 °F 80% 30.01 in 10.0 mi Calm Calm - N/A   Scattered Clouds
7:52 AM 48.9 °F - 42.1 °F 77% 30.04 in 10.0 mi ESE 3.5 mph - N/A   Scattered Clouds
8:52 AM 52.0 °F - 42.1 °F 69% 30.06 in 7.0 mi SE 6.9 mph - N/A   Mostly Cloudy
9:52 AM 55.0 °F - 44.1 °F 67% 30.07 in 8.0 mi SE 6.9 mph - N/A   Mostly Cloudy
10:52 AM 57.0 °F - 44.1 °F 62% 30.08 in 8.0 mi SSE 5.8 mph - N/A   Mostly Cloudy
11:52 AM 55.9 °F - 43.0 °F 62% 30.08 in 8.0 mi SSE 5.8 mph - N/A   Mostly Cloudy
12:52 PM 57.9 °F - 42.1 °F 56% 30.06 in 10.0 mi West 9.2 mph - N/A   Mostly Cloudy
1:52 PM 60.1 °F - 39.0 °F 46% 30.05 in 10.0 mi West 9.2 mph - N/A   Mostly Cloudy
2:52 PM 60.1 °F - 39.0 °F 46% 30.05 in 10.0 mi West 10.4 mph - N/A   Mostly Cloudy
3:52 PM 59.0 °F - 39.9 °F 49% 30.05 in 10.0 mi West 10.4 mph - N/A   Scattered Clouds
4:52 PM 57.0 °F - 39.9 °F 53% 30.05 in 10.0 mi NW 9.2 mph - N/A   Scattered Clouds
5:52 PM 55.0 °F - 39.0 °F 55% 30.06 in 10.0 mi West 5.8 mph - N/A   Scattered Clouds
6:52 PM 54.0 °F - 39.0 °F 57% 30.08 in 10.0 mi West 3.5 mph - N/A   Scattered Clouds
7:52 PM 54.0 °F - 39.0 °F 57% 30.09 in 10.0 mi West 4.6 mph - N/A   Partly Cloudy
8:52 PM 52.0 °F - 39.0 °F 61% 30.10 in 10.0 mi Calm Calm - N/A   Partly Cloudy
9:52 PM 53.1 °F - 37.9 °F 57% 30.12 in 10.0 mi West 5.8 mph - N/A   Scattered Clouds
10:52 PM 52.0 °F - 37.9 °F 59% 30.12 in 10.0 mi WNW 3.5 mph - N/A   Scattered Clouds
11:52 PM 48.0 °F - 37.9 °F 68% 30.12 in 9.0 mi East 4.6 mph - N/A   Scattered Clouds